Regional Weather Roundup
Issued by NWS Sterling, VA

Home | Current Version | Previous Version | Text Only | Print | Product List | Glossary Off
Versions: 1 2 3 4 5 6 7 8 9 10 11 12 13 14 15 16 17 18 19 20 21 22 23 24 25 26 27

000
ASUS41 KLWX 200111
RWRLWX

REGIONAL WEATHER ROUNDUP
NATIONAL WEATHER SERVICE BALTIMORE MD/WASHINGTON DC
900 PM EDT SAT MAY 19 2018

Note: "FAIR" indicates few or no clouds below 12,000 feet
with no significant weather and/or obstructions to visibility.
 TC=TEMPERATURE CELSIUS

 * =Non NWS site. Station does not report precipitation (e.g. rain,
    snow, etc.), thunder, or fog.

DCZ001-MDZ009-015-VAZ040>042-051-053>054-200200-
WASHINGTON METRO

CITY           SKY/WX    TMP DP  RH WIND       PRES   REMARKS
WASHINGTON NAT CLOUDY    70  67  90 S8        30.05S
DULLES         DRIZZLE   67  67 100 CALM      30.04S FOG
ANDREWS AFB    CLOUDY    71  69  95 S10       30.04S
FT BELVOIR     MOCLDY    69  68  96 SE6       30.04S
QUANTICO       CLOUDY    69  68  96 CALM      30.05S
COLLEGE PARK*  CLOUDY    70  68  93 S3        30.04S
LEESBURG*      CLOUDY    59  59 100 CALM      30.06S FOG
MANASSAS*      CLOUDY    68  66  94 CALM      30.04S FOG
GAITHERSBURG*  LGT RAIN  66  66 100 SE3       30.06S

$$

MDZ006>007-011-014-200200-
BALTIMORE METRO

CITY           SKY/WX    TMP DP  RH WIND       PRES   REMARKS
BWI AIRPORT    CLOUDY    67  67 100 E3        30.04S FOG
MD SCIENCE CTR   N/A     65  65 100 MISG      30.05S
MARTIN STATE   CLOUDY    68  68 100 SE3       30.06F FOG
ANNAPOLIS      CLOUDY    71  68  90 S12       30.05S
FORT MEADE*    CLOUDY    68  68 100 SE5       30.06F

$$

MDZ012-015-019>023-200200-
MARYLAND EASTERN SHORE

CITY           SKY/WX    TMP DP  RH WIND       PRES   REMARKS
OCEAN CITY     CLOUDY    66  65  96 SW9       30.11R
SALISBURY      FAIR      71  70  96 S8        30.09S
BAY BRIDGE AP* CLOUDY    70  68  94 S8        30.05F
CAMBRIDGE*     CLOUDY    72  70  94 S9        30.08R
EASTON*        MOCLDY    72  68  88 S10       30.11R

$$

MDZ017>025-200200-
SOUTHERN MARYLAND

CITY           SKY/WX    TMP DP  RH WIND       PRES   REMARKS
PATUXENT RIVER MOCLDY   N/A N/A N/A SE6       30.06S
ST INIGOES     NOT AVBL
LEONARDTOWN*   CLOUDY    70  68  94 S3        30.08S

$$

MDZ003>005-200200-
NORTH CENTRAL MARYLAND

CITY           SKY/WX    TMP DP  RH WIND       PRES   REMARKS
FREDERICK*     CLOUDY    63  63 100 CALM      30.08S FOG
HAGERSTOWN APT CLOUDY    59  57  93 N5        30.03F
WESTMINSTER*   LGT RAIN  64  64 100 S5        30.06R VSB 1

$$

MDZ501>502-200200-
WESTERN MARYLAND

CITY           SKY/WX    TMP DP  RH WIND       PRES   REMARKS
OAKLAND*       MOCLDY    61  61 100 S9        30.05R
CUMBERLAND*    CLOUDY    59  59 100 CALM      30.06S

$$

VAZ025>031-200200-
SHENANDOAH VALLEY

CITY           SKY/WX    TMP DP  RH WIND       PRES   REMARKS
WINCHESTER*    FAIR      61  61 100 CALM      30.04S
FRONT ROYAL*   FAIR      64  64 100 CALM      30.02S
LURAY*         FAIR      68  64  88 SW8       30.04R
NEW MARKET*    CLOUDY    69  66  89 SW5       30.01S
STAUNTON*      MOCLDY    67  64  91 S7        30.08R
WAYNESBORO*    MOCLDY    65  65 100 CALM      30.07R

$$

WVZ021-048>050-054>055-200200-
EASTERN WEST VIRGINIA PANHANDLE

CITY           SKY/WX    TMP DP  RH WIND       PRES   REMARKS
MARTINSBURG    CLOUDY    62  61  96 SE5       30.02S
PETERSBURG*    MOCLDY    62  60  94 CALM      30.02R

$$

VAZ036>039-050-200200-
CENTRAL FOOTHILLS

CITY           SKY/WX    TMP DP  RH WIND       PRES   REMARKS
CHARLOTTESVILL CLOUDY    66  64  93 CALM      30.06R
CULPEPER*      DRIZZLE   66  65  94 CALM      30.06S
ORANGE*        CLOUDY    64  64 100 CALM      30.05S
GORDONSVILLE*  CLOUDY    66  66 100 CALM      30.05S
WARRENTON*     DRIZZLE   67  64  90 CALM      30.04S

$$

VAZ055>057-200200-
NORTH AND CENTRAL PIEDMONT

CITY           SKY/WX    TMP DP  RH WIND       PRES   REMARKS
FREDERICKSBRG* CLOUDY    72  72 100 S7        30.04S
STAFFORD*      DRIZZLE   71  71 100 S5        30.08S

$$

NCZ024-NYZ072-PAZ021-071-VAZ022-071-200200-
OTHER REGIONAL OBSERVATIONS

CITY           SKY/WX    TMP DP  RH WIND       PRES   REMARKS
NEW YORK CITY  FOG       56  55  97 CALM      30.12S VSB 1
PHILADELPHIA   CLOUDY    63  62  97 NE5       30.07F FOG
PITTSBURGH     MOCLDY    73  65  75 S7        29.91R
ROANOKE        MOCLDY    70  68  93 CALM      30.06S
RICHMOND       CLOUDY    72  69  90 S13       30.06S
RALEIGH        CLOUDY    72  70  93 S9        30.09R

$$

ANZ530>537-200200-
MARINE OBSERVATIONS

STATION/POSITION TIME  TEMP    WIND        PRES
                       AIR SEA DIR/SP/G
                 (UTC) (F)     (DEG/KT/KT) (MB)
THOMAS PT LIGHT  0100   68 64  160/ 16/ 17 1018.4F
BALT KEY BRIDGE  0048   68     150/  9/ 10 1017.3F
COVE POINT       0048   68     190/ 14/ 17 1018.7R
LEWISETTA        0048   73 69  200/  7/  8 1018.3R
SOLOMONS ISLAND  0048   69 68  130/  5/  6 1017.9R
PINEY POINT      0048          170/  8/  9   N/A

$$





USA.gov is the U.S. government's official web portal to all federal, state and local government web resources and services.